Change the Weather History Date:

Sunday, April 7, 2013

  Actual Average Record
Temperature  
Mean Temperature 46 °F 49 °F  
Max Temperature 52 °F 59 °F 79 °F (1906)
Min Temperature 39 °F 39 °F 27 °F (1952)
Degree Days  
Heating Degree Days 19 16  
Month to date heating degree days 79 114  
Since 1 July heating degree days 3695 4065  
Cooling Degree Days 0 0  
Month to date cooling degree days 0 0  
Year to date cooling degree days 0 0  
Moisture  
Dew Point 42 °F    
Average Humidity 82    
Maximum Humidity 93    
Minimum Humidity 71    
Precipitation  
Precipitation 0.09 in 0.11 in 1.09 in (1907)
Month to date precipitation 1.35 0.86  
Year to date precipitation 5.95 15.43  
Snow  
Snow 0.00 in - - ()
Month to date snowfall 0.0  
Snow Depth 0.00 in    
Sea Level Pressure  
Sea Level Pressure 29.78 in    
Wind  
Wind Speed 14 mph (SW)    
Max Wind Speed 32 mph    
Max Gust Speed 43 mph    
Visibility 10 miles    
Events Rain    
T = Trace of Precipitation, MM = Missing Value Source: NWS Daily Summary

Daily Weather History Graph

Daily Weather History Graph

Search for Another Location

Airport or City:

Trip Planner

Search our weather history database for the weather conditions in past years. The results will help you decide how hot, cold, wet, or windy it might be!

Date:

Astronomy

Apr. 07, 2013 Rise Set
Actual Time 6:41 AM PDT 7:48 PM PDT
Civil Twilight 6:11 AM PDT 8:18 PM PDT
Nautical Twilight 5:35 AM PDT 8:55 PM PDT
Astronomical Twilight 4:56 AM PDT 9:33 PM PDT
Moon 5:08 AM PDT (4/7) 5:21 PM PDT (4/7)
Length of Visible Light 14h 07m
Length of Day
13h 07m
Waning Crescent, 7% of the Moon is Illuminated
Apr 7
Waning Crescent
Apr 10
New
Apr 18
First Quarter
Apr 25
Full
May 2
Last Quarter

Hourly Weather History & Observations

Time (PDT) Temp. Windchill Dew Point Humidity Pressure Visibility Wind Dir Wind Speed Gust Speed Precip Events Conditions
12:07 AM 48.2 °F - 44.6 °F 87% 29.70 in 9.0 mi SE 13.8 mph 19.6 mph 0.00 in Rain Light Rain
12:22 AM 48.2 °F - 44.6 °F 87% 29.68 in 6.0 mi SSE 12.7 mph - 0.02 in Rain Light Rain
12:25 AM 48.2 °F - 44.6 °F 87% 29.68 in 6.0 mi SSE 12.7 mph - 0.02 in Rain Light Rain
12:38 AM 48.2 °F - 44.6 °F 87% 29.66 in 10.0 mi SSE 13.8 mph - 0.02 in Rain Light Rain
12:43 AM 48.2 °F - 44.6 °F 87% 29.66 in 10.0 mi SSE 12.7 mph - 0.03 in Rain Light Rain
12:53 AM 48.9 °F - 46.0 °F 90% 29.65 in 10.0 mi SSE 11.5 mph - 0.03 in Rain Light Rain
1:53 AM 50.0 °F - 46.0 °F 86% 29.60 in 10.0 mi South 18.4 mph 26.5 mph 0.00 in   Overcast
2:03 AM 50.0 °F - 46.4 °F 87% 29.60 in 9.0 mi South 17.3 mph - 0.00 in Rain Light Rain
2:53 AM 51.1 °F - 46.9 °F 86% 29.58 in 10.0 mi South 20.7 mph 31.1 mph 0.01 in Rain Light Rain
3:53 AM 52.0 °F - 46.0 °F 80% 29.57 in 10.0 mi South 24.2 mph 29.9 mph 0.00 in   Overcast
4:53 AM 52.0 °F - 45.0 °F 77% 29.59 in 10.0 mi SSW 19.6 mph 29.9 mph N/A   Overcast
5:12 AM 51.8 °F - 42.8 °F 71% 29.61 in 10.0 mi SW 21.9 mph 36.8 mph N/A   Overcast
5:53 AM 48.9 °F - 42.1 °F 77% 29.68 in 10.0 mi WSW 21.9 mph 34.5 mph 0.01 in   Overcast
6:17 AM 48.2 °F - 42.8 °F 82% 29.71 in 10.0 mi SW 18.4 mph 29.9 mph N/A   Overcast
6:27 AM 46.4 °F 39.8 °F 41.0 °F 81% 29.72 in 10.0 mi SW 16.1 mph 25.3 mph N/A   Mostly Cloudy
6:37 AM 46.4 °F 39.2 °F 41.0 °F 81% 29.73 in 10.0 mi SSW 18.4 mph 27.6 mph N/A   Mostly Cloudy
6:49 AM 46.4 °F 40.1 °F 41.0 °F 81% 29.73 in 10.0 mi SSW 15.0 mph 24.2 mph N/A   Mostly Cloudy
6:53 AM 46.9 °F - 41.0 °F 80% 29.74 in 10.0 mi SSW 19.6 mph 24.2 mph N/A   Mostly Cloudy
7:53 AM 48.0 °F - 41.0 °F 77% 29.78 in 10.0 mi SW 23.0 mph 27.6 mph N/A   Mostly Cloudy
8:53 AM 48.0 °F - 41.0 °F 77% 29.80 in 10.0 mi SW 17.3 mph 26.5 mph 0.00 in Rain Light Rain
9:10 AM 48.2 °F - 42.8 °F 82% 29.81 in 10.0 mi SW 19.6 mph 26.5 mph 0.00 in Rain Light Rain
9:53 AM 48.9 °F - 42.1 °F 77% 29.83 in 10.0 mi SW 12.7 mph 20.7 mph 0.00 in   Overcast
10:30 AM 48.2 °F - 42.8 °F 82% 29.83 in 10.0 mi WSW 11.5 mph 20.7 mph 0.00 in Rain Light Rain
10:53 AM 48.0 °F - 42.1 °F 80% 29.83 in 9.0 mi SW 11.5 mph 18.4 mph 0.03 in Rain Light Rain
11:53 AM 51.1 °F - 43.0 °F 74% 29.84 in 10.0 mi WSW 15.0 mph 27.6 mph 0.01 in   Overcast
12:53 PM 48.0 °F - 41.0 °F 77% 29.85 in 10.0 mi SW 13.8 mph 20.7 mph 0.01 in Rain Light Rain
1:53 PM 48.9 °F - 41.0 °F 74% 29.86 in 10.0 mi West 13.8 mph 24.2 mph 0.00 in   Mostly Cloudy
2:53 PM 50.0 °F - 42.1 °F 74% 29.87 in 10.0 mi WSW 17.3 mph 23.0 mph 0.02 in   Mostly Cloudy
3:53 PM 51.1 °F - 42.1 °F 71% 29.87 in 10.0 mi SW 13.8 mph - 0.00 in   Clear
4:53 PM 48.9 °F - 42.1 °F 77% 29.87 in 10.0 mi SW 15.0 mph 20.7 mph 0.00 in Rain Light Rain
5:53 PM 48.9 °F - 41.0 °F 74% 29.88 in 10.0 mi WSW 10.4 mph - 0.00 in   Mostly Cloudy
6:53 PM 46.9 °F - 39.9 °F 77% 29.89 in 10.0 mi WSW 10.4 mph - N/A   Overcast
7:38 PM 46.4 °F 41.9 °F 37.4 °F 71% 29.90 in 10.0 mi WSW 9.2 mph - N/A   Mostly Cloudy
7:51 PM 44.6 °F 40.2 °F 37.4 °F 76% 29.90 in 10.0 mi WSW 8.1 mph - N/A   Overcast
7:53 PM 45.0 °F 40.1 °F 37.9 °F 76% 29.90 in 10.0 mi WSW 9.2 mph - N/A   Overcast
8:53 PM 45.0 °F 41.8 °F 37.0 °F 74% 29.93 in 10.0 mi West 5.8 mph - N/A   Overcast
9:53 PM 44.1 °F 41.5 °F 37.9 °F 79% 29.95 in 10.0 mi SW 4.6 mph - N/A   Overcast
10:53 PM 43.0 °F 38.8 °F 37.9 °F 82% 29.97 in 10.0 mi SW 6.9 mph - 0.00 in   Overcast
11:53 PM 41.0 °F 35.8 °F 37.0 °F 86% 29.99 in 10.0 mi SW 8.1 mph - N/A   Mostly Cloudy